Location: Sungai Bunut
(2.6333°N, 113.7333°E)
Time: 10:34:14
(UTC+00:00)

Transit 2A Rocket - Pass Details

Date: 05 December 2023
Orbit: 590 x 905 km, 66.7° (Epoch: 01 March)

Event Time Altitude Azimuth Distance (km) Brightness Sun altitude
Rises 23:53:08 0° 335° (NNW) 2,977 7.6 21.3°
Reaches altitude 10° 23:55:21 10° 332° (NNW) 2,110 6.9 21.8°
Maximum altitude 00:00:06 67° 250° (WSW) 786 5.2 22.9°
Drops below altitude 10° 00:05:22 10° 168° (SSE) 2,324 8.1 24.0°
Sets 00:07:54 0° 165° (SSE) 3,306 8.9 24.6°
